Location: Borbetomagus
(49.6328°N, 8.3592°E)
Time: 06:08:12
(UTC+00:00)

ISS - Pass Details

Date: 19 May 2025
Orbit: 415 x 417 km, 51.6° (Epoch: 22 June)

Event Time Altitude Azimuth Distance (km) Brightness Sun altitude
Rises 21:45:59 0° 288° (WNW) 2,362 0.7 -17.1°
Reaches altitude 10° 21:48:08 10° 282° (WNW) 1,495 -0.5 -17.3°
Maximum altitude 21:51:20 43° 209° (SSW) 595 -3.3 -17.5°
Enters shadow 21:51:22 43° 207° (SSW) 595 -3.3 -17.5°
